PEGASUS DEB, 39312

Orbit data source: Space-Track

PEGASUS DEB, 39312 is space debris in LEO originally from a launch on Thu, 19 May 1994 UTC launched from the Air Force Western Test Range (AFWTR). Debris objects in space refer to the collection of defunct objects orbiting the Earth. Examples of debris include non-operational satellites, rocket bodies, and fragments generated from explosions, collisions, or faulty payload assembly.

Loading next visibility...
Identifier
39312, 1994-029AEX
Orbit
LEO
Country
Flag of USUS
Related business
Manufacturer
Unknown
Mission
Spacecraft
Bus & Motor
Unknown
Mass
Unknown
Launch date (UTC)
1994-05-19 (32 years ago)
Launch vehicle
Unknown
Launch site
Air Force Western Test Range (AFWTR)
Object type
Payload
Rocket body
Debris
Shape & HBR
Unknown shape, 0.1 m
Radar Cross Section
Small (<0.1 m²)

Expand to show TLE details & history
Last TLE update: 7 hours ago

TLE from 7 hours ago
0 PEGASUS DEB
1 39312U 94029AEX 26175.27239184  .00005055  00000-0  61625-3 0  9997
2 39312  81.9760  12.7160 0192100  70.2061 291.9744 14.70844774690149
Epoch: 2026-06-24T06:32Z
TLE epoch observation values (Epoch: 2026-06-24T06:32:14.654Z)
Latitude
-0.00008°
Longitude
2.22295°
Altitude
613.045 km
Speed
7.578 km/s
True Right ascension
00h 50m 51s
True Declination
0° 00' 00"
Sunlit
Object was in daylight at epoch
Visualization orbit readout
Latitude
Unknown
Longitude
Unknown
Altitude
Unknown
Speed
Unknown
Apparent Right ascension
Unknown
Apparent Declination
Unknown
Sunlit
N/A
Visualization observer readout
Local Sidereal Time
00:18:58
Azimuth
Unknown
Elevation
Unknown
Doppler factor
Unknown
Orbital elements
Apogee altitude
790.544 km
Perigee altitude
520.315 km
Semi-major axis
7,033.567 km
Eccentricity
0.01921
Inclination
81.976°
RAAN
12.716°
Arg. of periapsis
70.2061°
True anomaly
289.91496°
Mean anomaly
291.9744°
Eccentric anomaly
290.94648°
Mean motion
3.67942 °/min
Orbital period
97.84 mins
BSTAR
0.00061625
Loading maneuver chart data...
Computing Atmospheric mass density...

Documentation

Showing up to 5 results
|